This demonstration page uses our WeatherBlox Daily Observations layout. Learn more.

Left ArrowRight Arrow

39.01783, -85.05884

Hourly Observations for March 4, 2022

Temp ( °F °C ) Dew Point ( °F °C ) Humidity (%) Winds ( mph kmh ) Pressure ( in mb ) Visibility ( mi km ) Precip ( " mm )
12:52 am 00:52 Partly Cloudy 34 1.1 21 -6.1 59 59 E 10 17 30.37 1029 10 16 0.00 0.00
1:52 am 01:52 Clear 34 1.1 21 -6.1 59 59 ENE 10 17 30.38 1029 10 16 0.00 0.00
2:52 am 02:52 Mostly Clear 33 0.6 21 -6.1 61 61 ENE 10 17 30.38 1029 10 16 0.00 0.00
3:52 am 03:52 Partly Cloudy 31 -0.6 22 -5.6 69 69 E 9 15 30.38 1029 10 16 0.00 0.00
4:52 am 04:52 Partly Cloudy 31 -0.6 21 -6.1 67 67 ENE 10 17 30.39 1029 10 16 0.00 0.00
5:52 am 05:52 Mostly Clear 30 -1.1 21 -6.1 69 69 E 12 19 30.38 1029 10 16 0.00 0.00
6:52 am 06:52 Mostly Clear 30 -1.1 21 -6.1 69 69 ENE 10 17 30.40 1029 10 16 0.00 0.00
7:52 am 07:52 Mostly Sunny 31 -0.6 21 -6.1 67 67 ENE 9 15 30.42 1030 10 16 0.00 0.00
8:52 am 08:52 Mostly Sunny 34 1.1 22 -5.6 61 61 E 9 15 30.43 1030 10 16 0.00 0.00
9:52 am 09:52 Mostly Sunny 38 3.3 21 -6.1 51 51 ENE 7 11 30.43 1031 10 16 0.00 0.00
10:52 am 10:52 Mostly Cloudy 41 5 22 -5.6 47 47 NE 7 11 30.42 1030 10 16 0.00 0.00
11:52 am 11:52 Mostly Cloudy 45 7.2 23 -5 42 42 NE 5 7 30.41 1030 10 16 0.00 0.00
12:52 pm 12:52 Mostly Cloudy 49 9.4 22 -5.6 35 35 NE 9 15 30.37 1029 10 16 0.00 0.00
1:52 pm 13:52 Cloudy 52 11.1 22 -5.6 31 31 NE 8 13 30.34 1028 10 16 0.00 0.00
2:52 pm 14:52 Cloudy 54 12.2 20 -6.7 26 26 ENE 9 15 30.32 1027 10 16 0.00 0.00
3:52 pm 15:52 Cloudy 54 12.2 18 -7.8 24 24 NE 8 13 30.31 1026 10 16 0.00 0.00
4:52 pm 16:52 Cloudy 53 11.7 21 -6.1 28 28 ENE 12 19 30.29 1026 10 16 0.00 0.00
5:52 pm 17:52 Cloudy 52 11.1 23 -5 32 32 E 9 15 30.29 1026 10 16 0.00 0.00
6:52 pm 18:52 Cloudy 48 8.9 24 -4.4 39 39 E 8 13 30.29 1026 10 16 0.00 0.00
7:52 pm 19:52 Mostly Cloudy 49 9.4 23 -5 36 36 ENE 12 19 30.28 1025 10 16 0.00 0.00
8:52 pm 20:52 Mostly Cloudy 46 7.8 25 -3.9 44 44 E 10 17 30.26 1025 10 16 0.00 0.00
9:52 pm 21:52 Cloudy 46 7.8 23 -5 40 40 E 12 19 30.24 1024 10 16 0.00 0.00
10:52 pm 22:52 Cloudy 46 7.8 21 -6.1 37 37 E 9 15 30.22 1023 10 16 0.00 0.00
11:52 pm 23:52 Cloudy 45 7.2 21 -6.1 39 39 E 7 11 30.21 1023 10 16 0.00 0.00

Powered by AerisWeather